Regional Weather Roundup
Issued by NWS

Home | Current Version | Previous Version | Graphics & Text | Print | Product List | Glossary On
Versions: 1 2 3 4 5 6 7 8 9 10 11 12 13 14 15 16 17 18 19 20 21 22 23 24 25 26 27 28 29 30 31 32 33 34 35 36 37 38 39 40 41 42 43 44 45 46 47 48 49 50
000
ASUS43 KIND 081859
RWRIN

WEATHER ROUNDUP FOR INDIANA
NATIONAL WEATHER SERVICE INDIANAPOLIS IN
200 PM EST MON FEB 08 2016

NOTE: "FAIR" INDICATES FEW OR NO CLOUDS BELOW 12,000 FEET WITH NO
SIGNIFICANT WEATHER AND/OR OBSTRUCTIONS TO VISIBILITY.

* - STATION DOES NOT REPORT WEATHER SUCH AS PRECIPITATION OR FOG.

+ - STATION NOT QUALITY CONTROLLED BY THE NATIONAL WEATHER SERVICE.
    USE DATA WITH CAUTION...ESPECIALLY DEWPOINT AND RELATIVE
    HUMIDITY OBSERVATIONS.

INZ001>003-010>013-019-020-082000-
NORTHWEST INDIANA

CITY           SKY/WX    TMP DP  RH WIND       PRES   REMARKS
GARY /AIRPORT/ CLOUDY    32  21  64 W16       29.67S WCI  21
RENSSELAER +   CLOUDY    30  21  69 W17       29.68S WCI  18

$$

LMZ046-743>745-082000-
SOUTHERN LAKE MICHIGAN

STATION/POSITION TIME  TEMP    WIND        PRES    WAVE
                       AIR SEA DIR/SP/G            HT
                 (UTC) (F)     (DEG/KT/KT) (MB)    (FT)
BURNS HARBOR     1800   31     270/ 13/ 16 1005.1S
MICHIGAN CITY    1800   30     240/ 18/ 19   N/A

$$

INZ004-005-014>016-021>024-082000-
NORTH CENTRAL INDIANA

CITY           SKY/WX    TMP DP  RH WIND       PRES   REMARKS
ELKHART          N/A     32  28  86 W10       29.62S WCI  24
GOSHEN         CLOUDY    35  29  78 W14       29.60F WCI  26
PERU/GRISSOM   LGT SNOW  32  30  93 NW13      29.62S FOG     WCI  22
SOUTH BEND     LGT SNOW  31  28  89 W10       29.63S FOG     WCI  22

$$

INZ006>009-017-018-025>027-082000-
NORTHEAST INDIANA

CITY           SKY/WX    TMP DP  RH WIND       PRES   REMARKS
ANGOLA *+      CLOUDY    36  28  75 NW6       29.59S
FORT WAYNE     PTSUNNY   37  28  70 W8        29.61F

$$

INZ028-029-035-036-043>045-051>053-082000-
WEST CENTRAL INDIANA

CITY           SKY/WX    TMP DP  RH WIND       PRES   REMARKS
GREENCASTLE +  CLOUDY    28  23  80 NW13      29.69R HAZE    WCI  18
LAFAYETTE      FLURRIES  27  22  81 W13G22    29.69S WCI  16
TERRE HAUTE    FLURRIES  27  20  75 NW20G25   29.74R WCI  13

$$

INZ030>032-037>040-046>048-054>057-064-065-082000-
CENTRAL INDIANA

CITY           SKY/WX    TMP DP  RH WIND       PRES   REMARKS
COLUMBUS       PTSUNNY  N/A N/A N/A W6        29.64
GREENWOOD *+   CLOUDY    39  32  75 W9        29.63F
INDIANAPOLIS   LGT SNOW  32  28  85 NW17G23   29.64S FOG     WCI  21
-EAGLE CREEK   MIX PCPN  32  29  88 NW15G25   29.65R FOG     WCI  22
KOKOMO *+        N/A    N/A N/A N/A MISG        N/A
MT COMFORT *+  CLOUDY    37  30  75 NW7       29.63F
SHELBYVILLE    CLOUDY    39  30  70 NW8       29.62F

$$

INZ033-034-041-042-049-050-058-059-082000-
EAST CENTRAL INDIANA

CITY           SKY/WX    TMP DP  RH WIND       PRES   REMARKS
MUNCIE         PTSUNNY   38  28  67 W9        29.61F

$$

INZ060-061-067>069-081>083-085>088-082000-
SOUTHWEST INDIANA

CITY           SKY/WX    TMP DP  RH WIND       PRES   REMARKS
EVANSVILLE     SNOW      32  26  78 W17G24    29.79R VSB 1/2 WCI  21
HUNTINGBURG *+ CLOUDY    36  27  69 W15G23    29.74R

$$

INZ062-063-066-070>080-084-089>092-082000-
SOUTH CENTRAL AND SOUTHEAST INDIANA

CITY           SKY/WX    TMP DP  RH WIND       PRES   REMARKS
BLOOMINGTON    SNOW      30  28  92 W15G21    29.67R VSB 1/2 WCI  19
MADISON *+     PTSUNNY   41  32  70 SW14      29.65F
SEYMOUR +      LGT SNOW  36  30  80 W15G28    29.66S

$$





USA.gov is the U.S. government's official web portal to all federal, state and local government web resources and services.